Year,Month,Day,Hour,Minute,Value (Times are PST for temperature in C)
2019,05,26,00,00,13.60
2019,05,26,00,01,13.60
2019,05,26,00,02,13.60
2019,05,26,00,03,13.60
2019,05,26,00,04,13.60
2019,05,26,00,05,13.60
2019,05,26,00,06,13.60
2019,05,26,00,07,13.60
2019,05,26,00,08,13.50
2019,05,26,00,09,13.50
2019,05,26,00,10,13.40
2019,05,26,00,11,13.50
2019,05,26,00,12,13.60
2019,05,26,00,13,13.60
2019,05,26,00,14,13.60
2019,05,26,00,15,13.60
2019,05,26,00,16,13.60
2019,05,26,00,17,13.50
2019,05,26,00,18,13.50
2019,05,26,00,19,13.40
2019,05,26,00,20,13.30
2019,05,26,00,21,13.30
2019,05,26,00,22,13.40
2019,05,26,00,23,13.40
2019,05,26,00,24,13.40
2019,05,26,00,25,13.40
2019,05,26,00,26,13.40
2019,05,26,00,27,13.30
2019,05,26,00,28,13.30
2019,05,26,00,29,13.20
2019,05,26,00,30,13.20
2019,05,26,00,31,13.10
2019,05,26,00,32,13.10
2019,05,26,00,33,13.00
2019,05,26,00,34,12.90
2019,05,26,00,35,12.90
2019,05,26,00,36,12.80
2019,05,26,00,37,12.80
2019,05,26,00,38,12.70
2019,05,26,00,39,12.70
2019,05,26,00,40,12.60
2019,05,26,00,41,12.60
2019,05,26,00,42,12.50
2019,05,26,00,43,12.40
2019,05,26,00,44,12.40
2019,05,26,00,45,12.30
2019,05,26,00,46,12.30
2019,05,26,00,47,12.30
2019,05,26,00,48,12.20
2019,05,26,00,49,12.20
2019,05,26,00,50,12.10
2019,05,26,00,51,12.10
2019,05,26,00,52,12.10
2019,05,26,00,53,12.00
2019,05,26,00,54,12.00
2019,05,26,00,55,11.90
2019,05,26,00,56,11.90
2019,05,26,00,57,11.90
2019,05,26,00,58,11.90
2019,05,26,00,59,11.90
2019,05,26,01,00,11.90
2019,05,26,01,01,11.80
2019,05,26,01,02,11.80
2019,05,26,01,03,11.80
2019,05,26,01,04,11.70
2019,05,26,01,05,11.70
2019,05,26,01,06,11.60
2019,05,26,01,07,11.60
2019,05,26,01,08,11.60
2019,05,26,01,09,11.50
2019,05,26,01,10,11.50
2019,05,26,01,11,11.40
2019,05,26,01,12,11.40
2019,05,26,01,13,11.40
2019,05,26,01,14,11.30
2019,05,26,01,15,11.30
2019,05,26,01,16,11.30
2019,05,26,01,17,11.30
2019,05,26,01,18,11.20
2019,05,26,01,19,11.20
2019,05,26,01,20,11.20
2019,05,26,01,21,11.20
2019,05,26,01,22,11.20
2019,05,26,01,23,11.20
2019,05,26,01,24,11.20
2019,05,26,01,25,11.20
2019,05,26,01,26,11.10
2019,05,26,01,27,11.10
2019,05,26,01,28,11.10
2019,05,26,01,29,11.00
2019,05,26,01,30,11.00
2019,05,26,01,31,11.00
2019,05,26,01,32,11.00
2019,05,26,01,33,11.00
2019,05,26,01,34,11.00
2019,05,26,01,35,10.90
2019,05,26,01,36,10.90
2019,05,26,01,37,10.90
2019,05,26,01,38,10.90
2019,05,26,01,39,10.80
2019,05,26,01,40,10.80
2019,05,26,01,41,10.80
2019,05,26,01,42,10.80
2019,05,26,01,43,10.80
2019,05,26,01,44,10.70
2019,05,26,01,45,10.70
2019,05,26,01,46,10.70
2019,05,26,01,47,10.70
2019,05,26,01,48,10.70
2019,05,26,01,49,10.70
2019,05,26,01,50,10.60
2019,05,26,01,51,10.60
2019,05,26,01,52,10.60
2019,05,26,01,53,10.60
2019,05,26,01,54,10.50
2019,05,26,01,55,10.50
2019,05,26,01,56,10.50
2019,05,26,01,57,10.50
2019,05,26,01,58,10.40
2019,05,26,01,59,10.40
2019,05,26,02,00,10.40
2019,05,26,02,01,10.30
2019,05,26,02,02,10.30
2019,05,26,02,03,10.30
2019,05,26,02,04,10.30
2019,05,26,02,05,10.30
2019,05,26,02,06,10.30
2019,05,26,02,07,10.20
2019,05,26,02,08,10.20
2019,05,26,02,09,10.20
2019,05,26,02,10,10.20
2019,05,26,02,11,10.20
2019,05,26,02,12,10.20
2019,05,26,02,13,10.20
2019,05,26,02,14,10.20
2019,05,26,02,15,10.10
2019,05,26,02,16,10.10
2019,05,26,02,17,10.10
2019,05,26,02,18,10.10
2019,05,26,02,19,10.10
2019,05,26,02,20,10.10
2019,05,26,02,21,10.10
2019,05,26,02,22,10.10
2019,05,26,02,23,10.10
2019,05,26,02,24,10.00
2019,05,26,02,25,10.00
2019,05,26,02,26,10.00
2019,05,26,02,27,9.90
2019,05,26,02,28,9.90
2019,05,26,02,29,9.90
2019,05,26,02,30,9.90
2019,05,26,02,31,9.90
2019,05,26,02,32,9.90
2019,05,26,02,33,9.90
2019,05,26,02,34,9.90
2019,05,26,02,35,9.90
2019,05,26,02,36,9.90
2019,05,26,02,37,9.90
2019,05,26,02,38,9.90
2019,05,26,02,39,10.00
2019,05,26,02,40,10.00
2019,05,26,02,41,10.10
2019,05,26,02,42,10.10
2019,05,26,02,43,10.10
2019,05,26,02,44,10.20
2019,05,26,02,45,10.10
2019,05,26,02,46,10.10
2019,05,26,02,47,10.10
2019,05,26,02,48,10.10
2019,05,26,02,49,10.10
2019,05,26,02,50,10.10
2019,05,26,02,51,10.00
2019,05,26,02,52,10.00
2019,05,26,02,53,9.90
2019,05,26,02,54,9.90
2019,05,26,02,55,9.90
2019,05,26,02,56,9.80
2019,05,26,02,57,9.80
2019,05,26,02,58,9.80
2019,05,26,02,59,9.80
2019,05,26,03,00,9.80
2019,05,26,03,01,9.70
2019,05,26,03,02,9.70
2019,05,26,03,03,9.70
2019,05,26,03,04,9.70
2019,05,26,03,05,9.70
2019,05,26,03,06,9.70
2019,05,26,03,07,9.70
2019,05,26,03,08,9.70
2019,05,26,03,09,9.70
2019,05,26,03,10,9.70
2019,05,26,03,11,9.60
2019,05,26,03,12,9.60
2019,05,26,03,13,9.60
2019,05,26,03,14,9.60
2019,05,26,03,15,9.60
2019,05,26,03,16,9.60
2019,05,26,03,17,9.70
2019,05,26,03,18,9.70
2019,05,26,03,19,9.80
2019,05,26,03,20,9.80
2019,05,26,03,21,9.80
2019,05,26,03,22,9.80
2019,05,26,03,23,9.80
2019,05,26,03,24,9.80
2019,05,26,03,25,9.80
2019,05,26,03,26,9.80
2019,05,26,03,27,9.80
2019,05,26,03,28,9.80
2019,05,26,03,29,9.80
2019,05,26,03,30,9.80
2019,05,26,03,31,9.80
2019,05,26,03,32,9.70
2019,05,26,03,33,9.70
2019,05,26,03,34,9.70
2019,05,26,03,35,9.70
2019,05,26,03,36,9.60
2019,05,26,03,37,9.60
2019,05,26,03,38,9.60
2019,05,26,03,39,9.60
2019,05,26,03,40,9.60
2019,05,26,03,41,9.60
2019,05,26,03,42,9.60
2019,05,26,03,43,9.60
2019,05,26,03,44,9.60
2019,05,26,03,45,9.60
2019,05,26,03,46,9.60
2019,05,26,03,47,9.60
2019,05,26,03,48,9.60
2019,05,26,03,49,9.60
2019,05,26,03,50,9.60
2019,05,26,03,51,9.60
2019,05,26,03,52,9.60
2019,05,26,03,53,9.60
2019,05,26,03,54,9.60
2019,05,26,03,55,9.60
2019,05,26,03,56,9.60
2019,05,26,03,57,9.60
2019,05,26,03,58,9.60
2019,05,26,03,59,9.60
2019,05,26,04,00,9.60
2019,05,26,04,01,9.60
2019,05,26,04,02,9.60
2019,05,26,04,03,9.60
2019,05,26,04,04,9.60
2019,05,26,04,05,9.60
2019,05,26,04,06,9.70
2019,05,26,04,07,9.70
2019,05,26,04,08,9.70
2019,05,26,04,09,9.80
2019,05,26,04,10,9.80
2019,05,26,04,11,9.80
2019,05,26,04,12,9.90
2019,05,26,04,13,9.90
2019,05,26,04,14,9.90
2019,05,26,04,15,9.90
2019,05,26,04,16,9.90
2019,05,26,04,17,10.00
2019,05,26,04,18,10.00
2019,05,26,04,19,10.10
2019,05,26,04,20,10.10
2019,05,26,04,21,10.10
2019,05,26,04,22,10.10
2019,05,26,04,23,10.10
2019,05,26,04,24,10.00
2019,05,26,04,25,10.10
2019,05,26,04,26,10.10
2019,05,26,04,27,10.10
2019,05,26,04,28,10.10
2019,05,26,04,29,10.10
2019,05,26,04,30,10.10
2019,05,26,04,31,10.10
2019,05,26,04,32,10.10
2019,05,26,04,33,10.10
2019,05,26,04,34,10.10
2019,05,26,04,35,10.10
2019,05,26,04,36,10.10
2019,05,26,04,37,10.00
2019,05,26,04,38,9.90
2019,05,26,04,39,9.90
2019,05,26,04,40,9.80
2019,05,26,04,41,9.80
2019,05,26,04,42,9.80
2019,05,26,04,43,9.70
2019,05,26,04,44,9.70
2019,05,26,04,45,9.70
2019,05,26,04,46,9.70
2019,05,26,04,47,9.70
2019,05,26,04,48,9.70
2019,05,26,04,49,9.70
2019,05,26,04,50,9.70
2019,05,26,04,51,9.70
2019,05,26,04,52,9.70
2019,05,26,04,53,9.70
2019,05,26,04,54,9.80
2019,05,26,04,55,9.80
2019,05,26,04,56,9.90
2019,05,26,04,57,9.90
2019,05,26,04,58,9.90
2019,05,26,04,59,10.00
2019,05,26,05,00,10.00
2019,05,26,05,01,10.10
2019,05,26,05,02,10.10
2019,05,26,05,03,10.10
2019,05,26,05,04,10.10
2019,05,26,05,05,10.10
2019,05,26,05,06,10.10
2019,05,26,05,07,10.10
2019,05,26,05,08,10.10
2019,05,26,05,09,10.10
2019,05,26,05,10,10.00
2019,05,26,05,11,10.00
2019,05,26,05,12,9.90
2019,05,26,05,13,9.90
2019,05,26,05,14,9.90
2019,05,26,05,15,9.80
2019,05,26,05,16,9.80
2019,05,26,05,17,9.80
2019,05,26,05,18,9.80
2019,05,26,05,19,9.80
2019,05,26,05,20,9.80
2019,05,26,05,21,9.80
2019,05,26,05,22,9.70
2019,05,26,05,23,9.70
2019,05,26,05,24,9.70
2019,05,26,05,25,9.70
2019,05,26,05,26,9.70
2019,05,26,05,27,9.70
2019,05,26,05,28,9.70
2019,05,26,05,29,9.70
2019,05,26,05,30,9.70
2019,05,26,05,31,9.70
2019,05,26,05,32,9.70
2019,05,26,05,33,9.70
2019,05,26,05,34,9.70
2019,05,26,05,35,9.80
2019,05,26,05,36,9.90
2019,05,26,05,37,10.00
2019,05,26,05,38,10.00
2019,05,26,05,39,10.10
2019,05,26,05,40,10.20
2019,05,26,05,41,10.20
2019,05,26,05,42,10.20
2019,05,26,05,43,10.20
2019,05,26,05,44,10.20
2019,05,26,05,45,10.20
2019,05,26,05,46,10.20
2019,05,26,05,47,10.30
2019,05,26,05,48,10.30
2019,05,26,05,49,10.30
2019,05,26,05,50,10.40
2019,05,26,05,51,10.50
2019,05,26,05,52,10.60
2019,05,26,05,53,10.70
2019,05,26,05,54,10.70
2019,05,26,05,55,10.70
2019,05,26,05,56,10.80
2019,05,26,05,57,10.80
2019,05,26,05,58,10.80
2019,05,26,05,59,10.90
2019,05,26,06,00,11.00
2019,05,26,06,01,11.00
2019,05,26,06,02,11.10
2019,05,26,06,03,11.20
2019,05,26,06,04,11.30
2019,05,26,06,05,11.30
2019,05,26,06,06,11.40
2019,05,26,06,07,11.50
2019,05,26,06,08,11.60
2019,05,26,06,09,11.60
2019,05,26,06,10,11.70
2019,05,26,06,11,11.70
2019,05,26,06,12,11.80
2019,05,26,06,13,11.80
2019,05,26,06,14,11.80
2019,05,26,06,15,11.80
2019,05,26,06,16,11.80
2019,05,26,06,17,11.90
2019,05,26,06,18,11.90
2019,05,26,06,19,11.90
2019,05,26,06,20,11.90
2019,05,26,06,21,11.90
2019,05,26,06,22,11.90
2019,05,26,06,23,11.90
2019,05,26,06,24,11.80
2019,05,26,06,25,11.80
2019,05,26,06,26,11.80
2019,05,26,06,27,11.80
2019,05,26,06,28,11.80
2019,05,26,06,29,11.80
2019,05,26,06,30,11.70
2019,05,26,06,31,11.80
2019,05,26,06,32,11.80
2019,05,26,06,33,11.80
2019,05,26,06,34,11.80
2019,05,26,06,35,11.80
2019,05,26,06,36,11.90
2019,05,26,06,37,12.00
2019,05,26,06,38,12.10
2019,05,26,06,39,12.20
2019,05,26,06,40,12.30
2019,05,26,06,41,12.30
2019,05,26,06,42,12.40
2019,05,26,06,43,12.50
2019,05,26,06,44,12.60
2019,05,26,06,45,12.70
2019,05,26,06,46,12.70
2019,05,26,06,47,12.80
2019,05,26,06,48,12.90
2019,05,26,06,49,13.00
2019,05,26,06,50,13.10
2019,05,26,06,51,13.10
2019,05,26,06,52,13.20
2019,05,26,06,53,13.30
2019,05,26,06,54,13.30
2019,05,26,06,55,13.40
2019,05,26,06,56,13.50
2019,05,26,06,57,13.50
2019,05,26,06,58,13.60
2019,05,26,06,59,13.60
2019,05,26,07,00,13.70
2019,05,26,07,01,13.70
2019,05,26,07,02,13.80
2019,05,26,07,03,13.80
2019,05,26,07,04,13.90
2019,05,26,07,05,14.00
2019,05,26,07,06,14.10
2019,05,26,07,07,14.10
2019,05,26,07,08,14.20
2019,05,26,07,09,14.30
2019,05,26,07,10,14.40
2019,05,26,07,11,14.50
2019,05,26,07,12,14.60
2019,05,26,07,13,14.70
2019,05,26,07,14,14.80
2019,05,26,07,15,14.80
2019,05,26,07,16,14.90
2019,05,26,07,17,15.00
2019,05,26,07,18,15.00
2019,05,26,07,19,15.10
2019,05,26,07,20,15.10
2019,05,26,07,21,15.20
2019,05,26,07,22,15.20
2019,05,26,07,23,15.20
2019,05,26,07,24,15.30
2019,05,26,07,25,15.30
2019,05,26,07,26,15.30
2019,05,26,07,27,15.40
2019,05,26,07,28,15.40
2019,05,26,07,29,15.40
2019,05,26,07,30,15.50
2019,05,26,07,31,15.50
2019,05,26,07,32,15.60
2019,05,26,07,33,15.60
2019,05,26,07,34,15.60
2019,05,26,07,35,15.60
2019,05,26,07,36,15.70
2019,05,26,07,37,15.70
2019,05,26,07,38,15.70
2019,05,26,07,39,15.70
2019,05,26,07,40,15.70
2019,05,26,07,41,15.80
2019,05,26,07,42,15.80
2019,05,26,07,43,15.80
2019,05,26,07,44,15.80
2019,05,26,07,45,15.80
2019,05,26,07,46,15.80
2019,05,26,07,47,15.80
2019,05,26,07,48,15.80
2019,05,26,07,49,15.90
2019,05,26,07,50,15.90
2019,05,26,07,51,15.90
2019,05,26,07,52,15.90
2019,05,26,07,53,15.90
2019,05,26,07,54,15.90
2019,05,26,07,55,15.90
2019,05,26,07,56,15.90
2019,05,26,07,57,15.90
2019,05,26,07,58,15.90
2019,05,26,07,59,15.90
2019,05,26,08,00,15.90
2019,05,26,08,01,15.90
2019,05,26,08,02,15.90
2019,05,26,08,03,15.90
2019,05,26,08,04,15.80
2019,05,26,08,05,15.90
2019,05,26,08,06,15.90
2019,05,26,08,07,15.90
2019,05,26,08,08,15.90
2019,05,26,08,09,16.00
2019,05,26,08,10,16.10
2019,05,26,08,11,16.10
2019,05,26,08,12,16.20
2019,05,26,08,13,16.20
2019,05,26,08,14,16.30
2019,05,26,08,15,16.30
2019,05,26,08,16,16.30
2019,05,26,08,17,16.30
2019,05,26,08,18,16.30
2019,05,26,08,19,16.30
2019,05,26,08,20,16.30
2019,05,26,08,21,16.30
2019,05,26,08,22,16.30
2019,05,26,08,23,16.30
2019,05,26,08,24,16.30
2019,05,26,08,25,16.30
2019,05,26,08,26,16.20
2019,05,26,08,27,16.20
2019,05,26,08,28,16.10
2019,05,26,08,29,16.10
2019,05,26,08,30,16.10
2019,05,26,08,31,16.00
2019,05,26,08,32,16.00
2019,05,26,08,33,16.00
2019,05,26,08,34,16.00
2019,05,26,08,35,15.90
2019,05,26,08,36,15.90
2019,05,26,08,37,15.90
2019,05,26,08,38,15.90
2019,05,26,08,39,15.90
2019,05,26,08,40,15.80
2019,05,26,08,41,15.80
2019,05,26,08,42,15.80
2019,05,26,08,43,15.80
2019,05,26,08,44,15.80
2019,05,26,08,45,15.80
2019,05,26,08,46,15.80
2019,05,26,08,47,15.80
2019,05,26,08,48,15.80
2019,05,26,08,49,15.80
2019,05,26,08,50,15.90
2019,05,26,08,51,15.90
2019,05,26,08,52,15.90
2019,05,26,08,53,15.80
2019,05,26,08,54,15.80
2019,05,26,08,55,15.80
2019,05,26,08,56,15.80
2019,05,26,08,57,15.80
2019,05,26,08,58,15.90
2019,05,26,08,59,15.90
2019,05,26,09,00,15.90
2019,05,26,09,01,16.00
2019,05,26,09,02,16.00
2019,05,26,09,03,16.00
2019,05,26,09,04,16.00
2019,05,26,09,05,16.00
2019,05,26,09,06,16.00
2019,05,26,09,07,16.00
2019,05,26,09,08,15.90
2019,05,26,09,09,15.90
2019,05,26,09,10,15.90
2019,05,26,09,11,15.90
2019,05,26,09,12,16.00
2019,05,26,09,13,16.00
2019,05,26,09,14,16.10
2019,05,26,09,15,16.20
2019,05,26,09,16,16.20
2019,05,26,09,17,16.20
2019,05,26,09,18,16.20
2019,05,26,09,19,16.10
2019,05,26,09,20,16.10
2019,05,26,09,21,16.20
2019,05,26,09,22,16.20
2019,05,26,09,23,16.20
2019,05,26,09,24,16.10
2019,05,26,09,25,16.20
2019,05,26,09,26,16.20
2019,05,26,09,27,16.20
2019,05,26,09,28,16.10
2019,05,26,09,29,16.10
2019,05,26,09,30,16.10
2019,05,26,09,31,16.00
2019,05,26,09,32,16.00
2019,05,26,09,33,16.10
2019,05,26,09,34,16.10
2019,05,26,09,35,16.10
2019,05,26,09,36,16.20
2019,05,26,09,37,16.20
2019,05,26,09,38,16.20
2019,05,26,09,39,16.30
2019,05,26,09,40,16.30
2019,05,26,09,41,16.30
2019,05,26,09,42,16.40
2019,05,26,09,43,16.40
2019,05,26,09,44,16.40
2019,05,26,09,45,16.40
2019,05,26,09,46,16.40
2019,05,26,09,47,16.50
2019,05,26,09,48,16.60
2019,05,26,09,49,16.70
2019,05,26,09,50,16.80
2019,05,26,09,51,16.90
2019,05,26,09,52,16.90
2019,05,26,09,53,16.90
2019,05,26,09,54,16.80
2019,05,26,09,55,16.80
2019,05,26,09,56,16.70
2019,05,26,09,57,16.70
2019,05,26,09,58,16.70
2019,05,26,09,59,16.70
2019,05,26,10,00,16.60
2019,05,26,10,01,16.70
2019,05,26,10,02,16.70
2019,05,26,10,03,16.80
2019,05,26,10,04,16.80
2019,05,26,10,05,16.80
2019,05,26,10,06,16.80
2019,05,26,10,07,16.80
2019,05,26,10,08,16.90
2019,05,26,10,09,17.00
2019,05,26,10,10,17.10
2019,05,26,10,11,17.20
2019,05,26,10,12,17.20
2019,05,26,10,13,17.30
2019,05,26,10,14,17.30
2019,05,26,10,15,17.30
2019,05,26,10,16,17.40
2019,05,26,10,17,17.40
2019,05,26,10,18,17.50
2019,05,26,10,19,17.60
2019,05,26,10,20,17.60
2019,05,26,10,21,17.70
2019,05,26,10,22,17.70
2019,05,26,10,23,17.70
2019,05,26,10,24,17.80
2019,05,26,10,25,17.80
2019,05,26,10,26,17.80
2019,05,26,10,27,17.80
2019,05,26,10,28,17.80
2019,05,26,10,29,17.90
2019,05,26,10,30,17.80
2019,05,26,10,31,17.80
2019,05,26,10,32,17.90
2019,05,26,10,33,17.90
2019,05,26,10,34,17.90
2019,05,26,10,35,17.90
2019,05,26,10,36,18.00
2019,05,26,10,37,18.00
2019,05,26,10,38,18.10
2019,05,26,10,39,18.10
2019,05,26,10,40,18.20
2019,05,26,10,41,18.20
2019,05,26,10,42,18.20
2019,05,26,10,43,18.30
2019,05,26,10,44,18.20
2019,05,26,10,45,18.30
2019,05,26,10,46,18.30
2019,05,26,10,47,18.20
2019,05,26,10,48,18.20
2019,05,26,10,49,18.20
2019,05,26,10,50,18.10
2019,05,26,10,51,18.10
2019,05,26,10,52,18.00
2019,05,26,10,53,18.00
2019,05,26,10,54,18.10
2019,05,26,10,55,18.10
2019,05,26,10,56,18.10
2019,05,26,10,57,18.10
2019,05,26,10,58,18.20
2019,05,26,10,59,18.30
2019,05,26,11,00,18.30
2019,05,26,11,01,18.40
2019,05,26,11,02,18.40
2019,05,26,11,03,18.40
2019,05,26,11,04,18.50
2019,05,26,11,05,18.50
2019,05,26,11,06,18.60
2019,05,26,11,07,18.70
2019,05,26,11,08,18.80
2019,05,26,11,09,18.90
2019,05,26,11,10,18.90
2019,05,26,11,11,19.00
2019,05,26,11,12,19.00
2019,05,26,11,13,18.90
2019,05,26,11,14,18.80
2019,05,26,11,15,18.70
2019,05,26,11,16,18.60
2019,05,26,11,17,18.60
2019,05,26,11,18,18.60
2019,05,26,11,19,18.50
2019,05,26,11,20,18.50
2019,05,26,11,21,18.40
2019,05,26,11,22,18.40
2019,05,26,11,23,18.40
2019,05,26,11,24,18.40
2019,05,26,11,25,18.30
2019,05,26,11,26,18.30
2019,05,26,11,27,18.30
2019,05,26,11,28,18.20
2019,05,26,11,29,18.20
2019,05,26,11,30,18.20
2019,05,26,11,31,18.30
2019,05,26,11,32,18.30
2019,05,26,11,33,18.30
2019,05,26,11,34,18.30
2019,05,26,11,35,18.40
2019,05,26,11,36,18.40
2019,05,26,11,37,18.50
2019,05,26,11,38,18.50
2019,05,26,11,39,18.60
2019,05,26,11,40,18.60
2019,05,26,11,41,18.70
2019,05,26,11,42,18.70
2019,05,26,11,43,18.70
2019,05,26,11,44,18.70
2019,05,26,11,45,18.80
2019,05,26,11,46,18.90
2019,05,26,11,47,18.90
2019,05,26,11,48,19.10
2019,05,26,11,49,19.10
2019,05,26,11,50,19.10
2019,05,26,11,51,19.10
2019,05,26,11,52,19.20
2019,05,26,11,53,19.20
2019,05,26,11,54,19.20
2019,05,26,11,55,19.20
2019,05,26,11,56,19.20
2019,05,26,11,57,19.30
2019,05,26,11,58,19.30
2019,05,26,11,59,19.30
2019,05,26,12,00,19.30
2019,05,26,12,01,19.30
2019,05,26,12,02,19.30
2019,05,26,12,03,19.30
2019,05,26,12,04,19.30
2019,05,26,12,05,19.30
2019,05,26,12,06,19.30
2019,05,26,12,07,19.30
2019,05,26,12,08,19.30
2019,05,26,12,09,19.30
2019,05,26,12,10,19.40
2019,05,26,12,11,19.40
2019,05,26,12,12,19.50
2019,05,26,12,13,19.50
2019,05,26,12,14,19.50
2019,05,26,12,15,19.50
2019,05,26,12,16,19.50
2019,05,26,12,17,19.40
2019,05,26,12,18,19.40
2019,05,26,12,19,19.40
2019,05,26,12,20,19.30
2019,05,26,12,21,19.30
2019,05,26,12,22,19.40
2019,05,26,12,23,19.40
2019,05,26,12,24,19.40
2019,05,26,12,25,19.40
2019,05,26,12,26,19.40
2019,05,26,12,27,19.50
2019,05,26,12,28,19.60
2019,05,26,12,29,19.50
2019,05,26,12,30,19.60
2019,05,26,12,31,19.60
2019,05,26,12,32,19.70
2019,05,26,12,33,19.60
2019,05,26,12,34,19.60
2019,05,26,12,35,19.50
2019,05,26,12,36,19.50
2019,05,26,12,37,19.50
2019,05,26,12,38,19.50
2019,05,26,12,39,19.60
2019,05,26,12,40,19.70
2019,05,26,12,41,19.80
2019,05,26,12,42,19.90
2019,05,26,12,43,19.90
2019,05,26,12,44,19.90
2019,05,26,12,45,20.00
2019,05,26,12,46,20.00
2019,05,26,12,47,20.00
2019,05,26,12,48,20.00
2019,05,26,12,49,20.00
2019,05,26,12,50,20.00
2019,05,26,12,51,19.90
2019,05,26,12,52,19.90
2019,05,26,12,53,19.90
2019,05,26,12,54,19.90
2019,05,26,12,55,19.90
2019,05,26,12,56,19.90
2019,05,26,12,57,19.90
2019,05,26,12,58,19.90
2019,05,26,12,59,19.90
2019,05,26,13,00,19.90
2019,05,26,13,01,19.90
2019,05,26,13,02,19.90
2019,05,26,13,03,19.90
2019,05,26,13,04,20.00
2019,05,26,13,05,20.10
2019,05,26,13,06,20.10
2019,05,26,13,07,20.20
2019,05,26,13,08,20.20
2019,05,26,13,09,20.20
2019,05,26,13,10,20.20
2019,05,26,13,11,20.20
2019,05,26,13,12,20.20
2019,05,26,13,13,20.20
2019,05,26,13,14,20.20
2019,05,26,13,15,20.20
2019,05,26,13,16,20.30
2019,05,26,13,17,20.30
2019,05,26,13,18,20.30
2019,05,26,13,19,20.30
2019,05,26,13,20,20.30
2019,05,26,13,21,20.30
2019,05,26,13,22,20.30
2019,05,26,13,23,20.30
2019,05,26,13,24,20.30
2019,05,26,13,25,20.40
2019,05,26,13,26,20.50
2019,05,26,13,27,20.60
2019,05,26,13,28,20.70
2019,05,26,13,29,20.80
2019,05,26,13,30,20.80
2019,05,26,13,31,20.90
2019,05,26,13,32,20.90
2019,05,26,13,33,20.80
2019,05,26,13,34,20.70
2019,05,26,13,35,20.70
2019,05,26,13,36,20.80
2019,05,26,13,37,20.80
2019,05,26,13,38,20.80
2019,05,26,13,39,20.80
2019,05,26,13,40,20.80
2019,05,26,13,41,20.90
2019,05,26,13,42,21.00
2019,05,26,13,43,21.00
2019,05,26,13,44,21.00
2019,05,26,13,45,21.00
2019,05,26,13,46,20.90
2019,05,26,13,47,21.00
2019,05,26,13,48,21.00
2019,05,26,13,49,21.20
2019,05,26,13,50,21.30
2019,05,26,13,51,21.40
2019,05,26,13,52,21.40
2019,05,26,13,53,21.30
2019,05,26,13,54,21.30
2019,05,26,13,55,21.30
2019,05,26,13,56,21.20
2019,05,26,13,57,21.20
2019,05,26,13,58,21.20
2019,05,26,13,59,21.10
2019,05,26,14,00,21.20
2019,05,26,14,01,21.20
2019,05,26,14,02,21.20
2019,05,26,14,03,21.30
2019,05,26,14,04,21.40
2019,05,26,14,05,21.40
2019,05,26,14,06,21.40
2019,05,26,14,07,21.50
2019,05,26,14,08,21.50
2019,05,26,14,09,21.70
2019,05,26,14,10,21.70
2019,05,26,14,11,21.80
2019,05,26,14,12,21.80
2019,05,26,14,13,21.80
2019,05,26,14,14,21.80
2019,05,26,14,15,21.80
2019,05,26,14,16,21.80
2019,05,26,14,17,21.90
2019,05,26,14,18,22.00
2019,05,26,14,19,22.10
2019,05,26,14,20,22.20
2019,05,26,14,21,22.20
2019,05,26,14,22,22.20
2019,05,26,14,23,22.20
2019,05,26,14,24,22.10
2019,05,26,14,25,22.00
2019,05,26,14,26,21.90
2019,05,26,14,27,21.90
2019,05,26,14,28,21.80
2019,05,26,14,29,21.80
2019,05,26,14,30,21.80
2019,05,26,14,31,21.80
2019,05,26,14,32,21.80
2019,05,26,14,33,21.80
2019,05,26,14,34,21.90
2019,05,26,14,35,21.90
2019,05,26,14,36,21.90
2019,05,26,14,37,21.90
2019,05,26,14,38,22.00
2019,05,26,14,39,22.10
2019,05,26,14,40,22.10
2019,05,26,14,41,22.10
2019,05,26,14,42,22.10
2019,05,26,14,43,22.10
2019,05,26,14,44,22.10
2019,05,26,14,45,22.00
2019,05,26,14,46,22.00
2019,05,26,14,47,22.00
2019,05,26,14,48,22.10
2019,05,26,14,49,22.10
2019,05,26,14,50,22.10
2019,05,26,14,51,22.10
2019,05,26,14,52,22.10
2019,05,26,14,53,22.20
2019,05,26,14,54,22.30
2019,05,26,14,55,22.30
2019,05,26,14,56,22.40
2019,05,26,14,57,22.50
2019,05,26,14,58,22.60
2019,05,26,14,59,22.70
2019,05,26,15,00,22.70
2019,05,26,15,01,22.70
2019,05,26,15,02,22.60
2019,05,26,15,03,22.60
2019,05,26,15,04,22.50
2019,05,26,15,05,22.50
2019,05,26,15,06,22.50
2019,05,26,15,07,22.60
2019,05,26,15,08,22.70
2019,05,26,15,09,22.80
2019,05,26,15,10,22.90
2019,05,26,15,11,22.90
2019,05,26,15,12,23.00
2019,05,26,15,13,23.10
2019,05,26,15,14,23.20
2019,05,26,15,15,23.30
2019,05,26,15,16,23.30
2019,05,26,15,17,23.30
2019,05,26,15,18,23.30
2019,05,26,15,19,23.30
2019,05,26,15,20,23.40
2019,05,26,15,21,23.50
2019,05,26,15,22,23.60
2019,05,26,15,23,23.60
2019,05,26,15,24,23.60
2019,05,26,15,25,23.70
2019,05,26,15,26,23.70
2019,05,26,15,27,23.70
2019,05,26,15,28,23.80
2019,05,26,15,29,23.80
2019,05,26,15,30,23.90
2019,05,26,15,31,24.00
2019,05,26,15,32,24.10
2019,05,26,15,33,24.20
2019,05,26,15,34,24.20
2019,05,26,15,35,24.30
2019,05,26,15,36,24.30
2019,05,26,15,37,24.40
2019,05,26,15,38,24.50
2019,05,26,15,39,24.60
2019,05,26,15,40,24.70
2019,05,26,15,41,24.70
2019,05,26,15,42,24.80
2019,05,26,15,43,24.80
2019,05,26,15,44,24.70
2019,05,26,15,45,24.70
2019,05,26,15,46,24.70
2019,05,26,15,47,24.60
2019,05,26,15,48,24.60
2019,05,26,15,49,24.50
2019,05,26,15,50,24.50
2019,05,26,15,51,24.40
2019,05,26,15,52,24.30
2019,05,26,15,53,24.30
2019,05,26,15,54,24.30
2019,05,26,15,55,24.30
2019,05,26,15,56,24.30
2019,05,26,15,57,24.40
2019,05,26,15,58,24.40
2019,05,26,15,59,24.40
2019,05,26,16,00,24.30
2019,05,26,16,01,24.20
2019,05,26,16,02,24.10
2019,05,26,16,03,24.10
2019,05,26,16,04,24.20
2019,05,26,16,05,24.20
2019,05,26,16,06,24.30
2019,05,26,16,07,24.30
2019,05,26,16,08,24.40
2019,05,26,16,09,24.40
2019,05,26,16,10,24.50
2019,05,26,16,11,24.40
2019,05,26,16,12,24.40
2019,05,26,16,13,24.40
2019,05,26,16,14,24.40
2019,05,26,16,15,24.30
2019,05,26,16,16,24.30
2019,05,26,16,17,24.30
2019,05,26,16,18,24.30
2019,05,26,16,19,24.30
2019,05,26,16,20,24.40
2019,05,26,16,21,24.50
2019,05,26,16,22,24.50
2019,05,26,16,23,24.60
2019,05,26,16,24,24.60
2019,05,26,16,25,24.70
2019,05,26,16,26,24.80
2019,05,26,16,27,24.80
2019,05,26,16,28,24.90
2019,05,26,16,29,25.00
2019,05,26,16,30,25.10
2019,05,26,16,31,25.10
2019,05,26,16,32,25.10
2019,05,26,16,33,25.20
2019,05,26,16,34,25.30
2019,05,26,16,35,25.30
2019,05,26,16,36,25.40
2019,05,26,16,37,25.50
2019,05,26,16,38,25.50
2019,05,26,16,39,25.60
2019,05,26,16,40,25.70
2019,05,26,16,41,25.70
2019,05,26,16,42,25.80
2019,05,26,16,43,25.90
2019,05,26,16,44,26.00
2019,05,26,16,45,26.10
2019,05,26,16,46,26.20
2019,05,26,16,47,26.20
2019,05,26,16,48,26.20
2019,05,26,16,49,26.20
2019,05,26,16,50,26.10
2019,05,26,16,51,26.00
2019,05,26,16,52,26.00
2019,05,26,16,53,25.90
2019,05,26,16,54,25.90
2019,05,26,16,55,25.90
2019,05,26,16,56,25.90
2019,05,26,16,57,25.90
2019,05,26,16,58,25.90
2019,05,26,16,59,26.00
2019,05,26,17,00,26.00
2019,05,26,17,01,26.10
2019,05,26,17,02,26.10
2019,05,26,17,03,26.10
2019,05,26,17,04,26.10
2019,05,26,17,05,26.10
2019,05,26,17,06,26.10
2019,05,26,17,07,26.20
2019,05,26,17,08,26.20
2019,05,26,17,09,26.30
2019,05,26,17,10,26.30
2019,05,26,17,11,26.40
2019,05,26,17,12,26.50
2019,05,26,17,13,26.50
2019,05,26,17,14,26.40
2019,05,26,17,15,26.40
2019,05,26,17,16,26.30
2019,05,26,17,17,26.20
2019,05,26,17,18,26.20
2019,05,26,17,19,26.10
2019,05,26,17,20,26.10
2019,05,26,17,21,26.00
2019,05,26,17,22,26.00
2019,05,26,17,23,26.00
2019,05,26,17,24,26.00
2019,05,26,17,25,25.90